TimeMST,TemperatureF,Dew PointF,Humidity,Sea Level PressureIn,VisibilityMPH,Wind Direction,Wind SpeedMPH,Gust SpeedMPH,PrecipitationIn,Events,Conditions,WindDirDegrees,DateUTC
12:48 AM,37.0,24.1,59,29.91,-9999.0,WSW,6.9,-,N/A,,Unknown,250,2013-01-18 07:48:00
1:48 AM,36.0,24.1,62,29.93,-9999.0,WSW,12.7,-,N/A,,Unknown,240,2013-01-18 08:48:00
2:48 AM,36.0,23.0,59,29.92,-9999.0,West,11.5,-,N/A,,Unknown,280,2013-01-18 09:48:00
3:48 AM,34.0,23.0,64,29.93,-9999.0,West,11.5,-,N/A,,Unknown,270,2013-01-18 10:48:00
4:48 AM,37.9,23.0,55,29.91,-9999.0,West,12.7,-,N/A,,Unknown,270,2013-01-18 11:48:00
5:48 AM,32.0,21.9,66,29.92,-9999.0,West,9.2,-,N/A,,Unknown,270,2013-01-18 12:48:00
6:48 AM,35.1,21.9,59,29.91,-9999.0,West,12.7,-,N/A,,Unknown,260,2013-01-18 13:48:00
7:48 AM,36.0,21.9,57,29.90,-9999.0,West,11.5,-,N/A,,Unknown,260,2013-01-18 14:48:00
8:48 AM,36.0,21.9,57,29.92,-9999.0,West,12.7,-,N/A,,Unknown,270,2013-01-18 15:48:00
9:48 AM,39.0,24.1,55,29.91,-9999.0,West,11.5,-,N/A,,Unknown,260,2013-01-18 16:48:00
10:48 AM,44.1,25.0,47,29.89,-9999.0,West,15.0,-,N/A,,Unknown,260,2013-01-18 17:48:00
11:48 AM,45.0,25.0,46,29.87,-9999.0,West,17.3,-,N/A,,Unknown,260,2013-01-18 18:48:00
12:48 PM,45.0,26.1,48,29.85,-9999.0,West,11.5,-,N/A,,Unknown,260,2013-01-18 19:48:00
1:48 PM,46.4,26.6,46,29.79,-9999.0,WSW,5.8,-,N/A,,Unknown,250,2013-01-18 20:48:00
2:48 PM,45.0,26.1,48,29.84,-9999.0,West,10.4,-,N/A,,Unknown,270,2013-01-18 21:48:00
3:48 PM,42.1,27.0,55,29.86,-9999.0,West,8.1,-,N/A,,Unknown,260,2013-01-18 22:48:00
4:48 PM,39.0,26.1,60,29.86,-9999.0,WNW,3.5,-,N/A,,Unknown,300,2013-01-18 23:48:00
5:48 PM,35.1,25.0,67,29.89,-9999.0,West,5.8,-,N/A,,Unknown,260,2013-01-19 00:48:00
6:48 PM,35.1,25.0,67,29.90,-9999.0,WSW,4.6,-,N/A,,Unknown,240,2013-01-19 01:48:00
7:48 PM,37.0,26.1,65,29.90,-9999.0,West,10.4,-,N/A,,Unknown,270,2013-01-19 02:48:00
8:48 PM,34.0,25.0,70,29.92,-9999.0,West,9.2,-,N/A,,Unknown,270,2013-01-19 03:48:00
9:48 PM,32.0,25.0,75,29.95,-9999.0,WNW,4.6,-,N/A,,Unknown,300,2013-01-19 04:48:00
10:48 PM,30.0,24.1,79,29.94,-9999.0,WNW,6.9,-,N/A,,Unknown,300,2013-01-19 05:48:00
11:48 PM,28.9,23.0,78,29.96,-9999.0,WNW,5.8,-,N/A,,Unknown,290,2013-01-19 06:48:00